Simultaneous Nadir Overpasses (SNOs) Predictions

Prediction of SNOs between AQUA and METOP-C Satellite Orbit:

Table of predicted SNOs for the next 14.0 days since TLE Epoch: 10/31/2025
Index Date (AQUA) Time (AQUA) Lat,Lon (AQUA) SZA (AQUA ) Date (METOP-C) Time (METOP-C) Lat,Lon (METOP-C) SZA (METOP-C ) Distance(km) Time Diff (sec)
1 11/02/2025 13:55:16 77.10, -23.97 92.12 11/02/2025 13:54:04 77.13, -23.91 92.14 3.13 72
2 11/02/2025 14:44:34 -77.15, 143.52 87.83 11/02/2025 14:44:45 -77.15, 143.50 87.84 0.79 11
3 11/05/2025 01:53:18 -77.14, -23.53 87.08 11/05/2025 01:52:20 -77.14, -23.40 87.08 3.37 58
4 11/05/2025 02:42:36 77.15, 144.08 92.95 11/05/2025 02:43:00 77.15, 143.94 92.94 3.46 24
5 11/07/2025 13:51:18 77.15, -23.01 93.68 11/07/2025 13:50:34 77.13, -23.01 93.66 1.63 44
6 11/07/2025 14:40:36 -77.19, 144.49 86.28 11/07/2025 14:41:14 -77.20, 144.62 86.26 3.46 38
7 11/10/2025 01:49:17 -77.15, -22.44 85.61 11/10/2025 01:48:50 -77.14, -22.53 85.62 2.22 27
8 11/10/2025 02:38:36 77.22, 144.96 94.47 11/10/2025 02:39:29 77.18, 144.96 94.44 4.36 53
9 11/12/2025 13:47:16 77.19, -22.01 95.11 11/12/2025 13:47:03 77.20, -21.87 95.12 3.51 13



Historial Predications of SNOs between AQUA and METOP-C
